Wind_Speed
12 11 10 9 9 8 7 4 2 2 4 2 2 2 4 6 7 6 7 7 6 5 3 7 11 8 5 5 9 9 9 7 2 1 4 10 19 20 17 20 20 18 18 17 18 19 17 17 16 16 17 17 18 18 17 17 17 16 15 15 15 14 14 13 12 12 11 10 10 10 9 9 8 8 8 8 7 8 8 9 9 9 9 8 8 9 9 11 12 13 17 16 12 11 12 13 13
11 11 10 9 8 5 3 2 3 3 4 1 4 4 5 6 7 8 8 6 6 7 7 9 10 6 6 7 8 8 10 9 6 6 10 19 22 18 19 20 19 18 17 17 16 16 16 17 16 16 16 16 16 16 16 16 16 16 15 15 15 15 14 14 12 12 11 10 10 10 9 9 8 8 8 7 7 7 8 8 8 9 10 9 9 9 8 9 10 12 15 16 15 12 11 12 13
11 11 10 9 6 3 1 2 3 2 2 3 5 5 5 6 8 8 7 8 9 11 10 10 9 6 5 7 5 6 7 7 10 11 12 20 18 17 21 19 19 18 17 16 15 15 15 16 16 15 15 15 16 16 17 17 17 16 15 15 16 16 14 13 12 11 11 10 10 9 9 8 8 8 8 7 6 6 7 8 8 9 10 10 10 9 9 9 10 11 13 15 16 14 11 11 13
11 10 9 7 4 3 2 2 3 3 1 5 5 5 6 7 9 9 9 10 11 12 11 11 8 3 3 8 6 7 8 7 12 13 11 15 16 19 21 19 19 17 16 15 14 14 15 16 15 14 15 16 16 16 17 16 16 15 14 15 16 15 13 12 12 11 10 11 10 10 9 8 8 9 8 7 8 8 8 8 7 9 9 10 11 10 9 10 11 12 13 15 16 16 13 11 12
10 8 7 5 3 1 3 2 3 2 3 4 5 6 7 9 10 10 11 11 11 11 10 9 7 5 6 9 4 6 8 8 13 14 14 15 18 21 20 19 18 16 16 15 15 15 15 15 14 15 16 16 16 15 15 14 14 14 14 16 16 13 12 12 11 10 9 11 11 10 10 9 9 9 9 9 10 10 10 9 7 8 8 10 11 11 11 11 12 12 13 14 15 16 15 13 12
9 7 6 6 3 1 3 2 1 3 6 5 6 7 8 10 11 12 12 11 10 10 9 7 8 9 8 8 6 7 6 8 12 13 15 19 21 20 20 18 17 16 16 15 15 15 16 15 15 16 16 15 14 14 13 13 13 13 14 17 15 12 12 12 10 10 10 11 11 10 10 9 9 10 9 9 10 11 11 10 9 9 8 10 12 12 11 12 12 12 12 13 14 14 15 15 14
7 5 4 5 2 2 4 0 3 5 5 5 7 8 8 10 10 13 13 11 9 9 7 7 10 10 8 5 7 8 6 10 12 13 18 21 22 20 19 17 16 16 15 14 14 15 15 16 16 16 15 14 13 13 12 11 12 13 16 17 13 11 14 13 10 10 11 11 11 11 10 9 10 11 10 10 10 11 12 12 12 10 10 12 13 13 13 12 12 12 12 12 12 13 14 13 14
5 4 3 3 2 3 3 2 4 5 5 5 7 8 9 10 10 11 12 10 9 9 7 9 10 8 8 5 6 7 8 11 13 18 21 23 22 20 18 17 17 16 15 14 14 14 15 16 16 15 14 13 12 11 11 10 11 14 17 17 12 11 14 13 11 11 12 11 11 12 11 9 10 11 11 10 10 10 11 12 13 12 12 13 13 14 14 12 11 12 12 12 13 13 13 12 12
5 4 3 3 3 3 1 3 5 6 7 6 8 8 8 9 9 10 11 10 9 9 9 9 6 7 8 7 8 8 9 12 17 22 23 23 23 20 18 17 17 16 15 14 14 14 15 17 15 13 12 11 11 10 10 10 10 14 18 17 12 11 13 12 12 12 12 12 11 12 11 10 10 11 12 12 10 10 11 13 14 14 13 13 12 13 14 12 11 12 12 13 13 13 12 12 12
5 4 2 3 3 2 3 4 5 6 8 7 8 8 8 7 7 9 10 11 11 10 9 7 7 9 9 10 9 7 11 15 20 23 23 23 22 19 18 17 17 17 16 14 14 15 15 16 14 12 11 10 10 9 9 9 10 15 18 17 11 11 14 13 13 13 12 12 12 12 11 10 10 12 14 14 12 10 12 14 15 15 15 14 12 13 14 12 11 13 13 13 14 13 12 12 12
3 3 2 3 2 2 4 5 5 6 8 7 8 7 6 7 7 9 10 11 11 10 10 7 9 12 10 9 7 8 15 19 21 22 23 22 20 19 18 17 17 16 16 15 15 15 15 15 13 11 11 10 9 9 9 9 10 14 18 16 12 12 14 13 13 14 13 12 13 13 11 10 10 12 14 15 14 12 11 13 15 15 16 15 13 13 13 11 11 13 14 14 14 13 12 12 12
2 1 3 2 1 3 3 6 7 7 8 7 8 7 5 6 7 9 11 11 11 10 9 6 9 10 10 8 6 11 18 19 21 22 21 20 19 19 18 17 17 16 15 15 14 14 15 14 12 11 10 9 8 9 9 9 9 12 17 16 12 12 14 13 12 12 12 13 14 13 12 11 10 12 14 15 15 12 11 12 13 15 17 16 15 14 13 11 11 13 15 15 15 13 13 12 12
2 2 3 1 1 2 3 5 6 6 7 7 7 7 5 6 8 9 10 11 10 9 8 7 10 9 8 9 7 12 17 19 21 21 20 19 19 18 17 17 17 16 15 14 14 14 13 13 12 11 10 9 9 9 9 9 10 11 15 16 13 12 14 14 12 11 12 13 13 13 13 12 11 11 13 15 15 13 12 12 13 14 16 16 15 16 16 13 11 13 15 15 15 13 13 12 11
2 2 4 1 1 1 3 4 6 5 6 7 8 7 5 4 7 8 9 11 9 7 8 8 10 10 9 9 8 10 15 20 21 20 20 18 18 17 17 17 17 16 14 14 14 13 12 12 12 12 10 9 9 9 9 9 10 11 13 14 13 13 14 14 13 13 14 13 12 13 14 14 12 12 12 13 14 14 13 13 13 13 15 15 15 17 17 13 11 13 16 16 14 13 13 12 12
3 2 4 2 2 3 3 3 3 4 6 8 9 8 6 4 6 7 5 7 7 7 8 9 7 6 9 10 9 12 18 22 21 20 19 18 18 17 17 17 16 15 14 13 13 12 11 11 11 11 10 9 9 8 8 9 9 10 11 12 13 13 13 14 13 13 15 14 13 14 15 15 13 13 12 12 13 13 12 12 13 13 14 15 15 17 18 16 14 14 15 15 14 14 14 13 13
3 3 4 2 3 4 4 4 3 4 6 8 10 9 7 7 6 5 3 1 8 8 6 7 4 2 8 11 13 20 23 24 21 20 19 19 18 17 17 16 16 14 13 12 12 11 10 11 11 10 10 9 9 8 9 9 10 10 10 11 13 13 13 13 13 13 14 14 14 14 15 15 15 14 13 12 12 12 12 12 13 14 15 15 15 15 16 17 16 14 14 14 14 15 15 15 14
3 3 3 1 4 5 6 5 5 4 6 9 11 9 8 9 6 4 3 2 8 8 4 7 5 2 8 13 19 26 26 24 22 20 20 19 17 16 16 15 15 13 12 12 11 10 10 10 10 10 10 9 9 9 9 10 11 11 9 11 11 12 13 13 13 12 13 14 14 14 14 15 15 15 13 12 11 11 12 11 13 15 15 15 14 14 15 16 15 14 13 14 15 15 16 16 15
4 3 2 2 5 5 6 7 6 4 5 9 11 9 7 10 8 6 6 6 8 7 6 7 6 6 11 18 24 27 26 25 23 22 20 18 17 16 15 15 14 14 13 12 10 10 10 10 10 10 10 9 9 9 9 9 11 10 9 11 10 12 13 12 12 11 12 13 13 12 11 12 14 15 14 13 10 11 12 12 12 14 14 14 12 12 14 15 15 14 13 14 14 14 14 13 14
4 3 1 3 5 6 7 8 7 4 3 8 11 9 6 8 10 8 8 9 9 8 8 8 10 11 15 21 25 26 26 25 23 22 20 18 17 16 15 15 15 14 14 12 11 11 10 10 10 9 9 10 9 9 9 9 10 9 9 10 10 11 12 11 10 10 10 11 10 10 10 11 12 14 15 14 11 10 12 12 12 12 12 12 12 12 13 14 14 14 13 13 12 13 12 9 10
3 3 0 5 5 5 7 9 7 6 4 6 10 9 6 8 9 8 7 10 9 8 9 10 12 14 17 21 24 26 25 24 23 22 20 18 17 16 16 16 15 15 14 13 12 11 10 10 10 10 10 10 9 9 9 9 9 9 8 8 9 10 10 10 9 9 9 9 9 9 10 11 12 14 16 16 13 10 11 11 10 10 11 11 12 11 11 12 13 13 12 11 10 10 10 8 8
2 3 1 6 3 3 7 8 7 6 4 5 7 9 8 8 8 7 8 9 8 7 9 11 14 18 20 21 23 25 24 24 23 22 20 18 17 16 16 16 15 14 14 13 12 11 11 11 11 10 10 9 8 9 9 9 9 8 8 8 9 9 9 9 9 9 9 8 9 9 11 11 11 12 13 13 12 10 10 9 8 8 8 9 10 9 9 9 10 9 9 9 8 9 9 8 9
2 3 1 2 2 3 5 6 6 5 3 5 6 8 7 8 7 8 8 4 3 6 9 12 15 18 20 22 23 24 23 23 22 21 20 19 18 16 16 16 15 14 13 12 12 12 11 11 11 11 11 10 8 8 9 9 9 8 9 9 9 9 9 9 8 9 8 8 9 10 11 11 11 11 11 11 11 10 9 8 7 7 7 7 7 7 8 8 8 8 8 8 8 8 8 9 9
4 4 1 1 3 3 4 5 4 3 1 4 5 5 6 9 7 8 8 2 5 7 11 13 16 19 21 22 22 22 22 21 21 21 20 19 19 17 17 16 15 15 13 13 13 12 12 11 11 11 11 10 9 8 9 9 9 8 9 9 8 8 8 8 8 8 8 7 8 9 9 10 10 10 11 10 10 9 9 8 7 7 7 6 7 7 8 7 8 8 8 7 7 8 9 9 9
6 3 1 2 3 4 5 4 2 1 0 3 4 5 7 9 6 7 8 5 7 10 12 14 17 21 22 20 19 20 21 20 20 20 19 19 18 18 17 16 15 15 13 13 13 13 13 12 11 11 11 10 9 9 9 9 8 9 10 9 9 9 8 7 7 8 8 7 7 8 8 9 9 10 10 10 9 9 8 7 7 7 7 7 7 7 7 7 8 8 8 7 7 7 8 8 8
8 6 2 3 4 4 5 4 2 1 1 3 6 6 7 7 5 7 8 8 9 11 14 16 18 20 19 18 18 19 19 20 20 19 19 17 17 17 16 16 15 14 14 14 13 13 13 12 12 11 11 10 9 9 9 8 8 9 9 9 9 9 8 7 8 8 7 7 7 7 7 7 7 9 9 9 8 8 7 7 7 7 7 7 7 7 7 7 7 7 7 7 6 7 7 8 8
5 5 4 5 6 5 5 4 1 2 3 5 8 6 7 7 5 6 9 9 11 13 15 17 18 19 18 16 18 18 18 19 20 19 18 17 17 17 16 15 15 14 14 14 13 13 12 12 12 12 11 10 10 9 8 8 8 8 8 8 9 9 8 8 8 8 7 7 7 7 7 7 6 7 8 8 8 8 8 7 7 8 8 7 7 7 7 6 6 6 6 6 6 6 7 7 7
1 4 5 7 8 6 5 4 1 3 6 8 8 7 8 9 6 5 9 11 12 14 16 17 17 18 17 16 16 17 18 19 20 19 18 17 17 17 16 15 15 14 14 14 13 12 12 12 12 12 11 11 10 9 8 8 8 8 8 8 8 8 8 8 8 8 8 7 7 8 8 7 6 6 7 8 8 8 8 8 8 8 8 7 7 7 6 6 6 6 5 5 5 5 6 6 6
2 5 6 7 8 5 4 2 2 4 6 9 8 7 8 8 6 6 11 13 13 14 16 17 16 16 16 16 15 14 16 18 19 19 19 18 17 17 17 15 15 15 14 14 13 12 13 13 12 12 12 11 10 9 8 8 8 8 8 8 8 8 8 8 8 8 8 8 8 7 7 7 6 6 7 7 7 7 8 8 8 8 8 7 7 7 6 6 5 5 5 5 5 5 6 6 6
5 6 5 5 7 5 2 0 4 5 6 9 7 5 8 8 6 9 13 13 13 14 15 15 15 14 14 15 14 12 15 18 18 18 18 17 17 17 17 16 16 15 14 14 13 13 13 12 12 12 12 11 10 9 9 8 8 8 8 7 7 8 7 7 7 8 8 8 8 7 7 7 6 6 7 7 7 7 8 8 8 7 7 7 7 6 6 5 5 5 4 4 5 5 6 5 5
7 6 5 5 6 6 4 3 6 6 5 9 8 3 5 8 7 10 13 13 14 14 14 14 13 13 13 13 13 12 15 17 17 18 18 17 16 17 17 17 16 14 13 14 14 14 13 12 12 12 12 11 10 9 9 8 9 8 7 7 7 7 7 7 7 8 8 8 7 7 7 7 6 6 6 6 6 7 8 7 7 7 6 6 6 5 4 4 4 4 4 4 5 5 5 5 4
6 5 5 5 5 6 7 5 7 6 5 9 8 3 4 8 9 11 13 13 15 13 14 14 13 12 12 13 13 13 14 16 17 18 18 18 16 16 17 16 17 15 13 14 15 14 13 13 12 11 12 12 11 10 9 9 9 8 8 7 7 7 6 7 7 7 8 7 7 7 6 6 6 6 5 6 6 6 7 7 7 6 6 5 5 4 4 4 4 4 4 4 4 5 5 4 4
7 5 7 6 5 5 8 6 5 3 5 9 7 2 5 9 11 12 12 13 14 13 14 14 13 14 13 13 13 12 14 16 18 18 18 18 17 16 16 17 17 15 14 14 15 15 14 13 12 12 13 12 11 10 9 9 9 8 8 7 7 7 6 7 7 7 7 7 7 7 6 5 5 6 5 5 6 6 6 7 6 5 5 4 4 4 3 3 3 4 4 4 4 4 4 4 4
7 7 7 7 7 5 7 7 3 2 5 8 8 3 4 9 10 11 11 13 13 12 13 14 14 14 13 12 12 12 13 15 16 18 19 18 17 16 16 17 17 16 14 14 15 15 14 14 13 12 13 13 12 11 10 9 9 8 8 7 7 7 6 7 7 7 7 7 7 6 6 6 5 6 6 5 5 5 5 6 6 5 4 3 3 3 3 3 3 4 4 3 4 3 3 4 4
7 8 7 6 8 6 5 7 5 3 4 6 8 4 4 9 9 11 11 12 12 11 12 14 13 13 12 12 12 13 13 14 15 18 20 19 17 17 17 17 17 16 15 14 15 15 15 14 13 12 13 13 12 12 11 10 9 9 8 7 7 7 6 6 6 7 7 6 7 6 6 6 5 6 6 5 5 5 5 5 6 5 5 4 3 3 2 3 3 3 4 3 3 3 2 3 3
9 10 8 6 7 6 4 6 5 4 5 4 6 5 3 8 8 9 11 11 11 10 11 12 12 13 13 12 12 13 14 14 15 18 21 20 18 17 17 17 17 17 15 15 15 15 15 14 13 12 13 13 13 12 12 10 9 9 8 7 7 7 6 6 6 6 6 6 6 7 7 6 6 6 6 6 6 5 5 5 6 6 5 4 3 3 3 3 3 3 3 3 2 2 1 1 2
7 10 10 7 7 7 4 7 4 2 4 5 6 5 5 7 8 9 10 11 10 9 10 10 11 12 12 12 12 13 14 14 16 20 21 20 18 18 17 17 17 17 16 15 15 15 15 14 14 13 13 13 13 12 12 11 10 10 9 8 8 8 7 6 6 5 5 6 6 6 7 6 6 6 6 6 6 6 6 5 6 6 5 5 4 4 4 4 4 3 3 3 2 2 2 1 0
3 6 9 7 6 6 6 6 4 0 4 4 4 4 5 5 8 9 9 10 10 10 11 11 11 12 12 12 12 13 14 13 17 20 20 20 19 18 18 17 17 17 16 16 16 16 16 15 15 15 14 13 13 13 12 12 11 11 10 10 9 9 8 7 6 6 5 5 6 6 6 6 6 6 6 6 6 6 6 6 6 6 5 5 4 3 3 3 4 3 3 3 2 2 2 1 1
3 4 7 7 7 5 6 4 5 1 5 4 4 5 5 5 6 9 9 11 12 12 13 13 13 13 12 13 13 13 12 12 16 19 20 21 20 19 18 16 17 18 17 17 17 17 16 16 15 15 15 14 13 13 12 12 12 11 11 10 10 9 8 7 6 6 6 6 6 6 6 6 6 6 6 6 6 6 7 6 6 6 5 5 4 3 3 3 4 3 4 4 3 2 2 1 1
5 6 6 7 8 5 5 5 5 2 4 3 5 4 5 5 5 9 11 11 11 13 14 13 14 14 13 13 13 13 13 13 15 17 20 22 21 21 19 17 17 18 17 18 18 17 17 16 16 15 15 15 14 13 13 12 12 11 10 10 9 8 8 7 5 5 6 6 6 7 7 7 7 7 7 6 6 6 7 7 7 7 6 6 5 4 4 4 4 4 4 4 3 3 2 2 1
7 6 6 7 8 7 5 7 6 2 3 1 1 4 4 6 5 7 10 11 10 12 13 12 13 13 13 13 13 13 14 14 15 17 19 21 22 22 20 18 18 18 17 18 18 18 17 17 16 16 16 16 14 13 13 12 11 11 9 9 9 7 6 6 5 5 5 6 7 7 8 8 8 8 8 8 7 7 6 7 7 7 7 6 5 5 5 5 5 5 5 4 3 3 3 3 2
9 8 8 6 7 7 4 4 4 4 4 4 4 5 5 6 7 7 8 10 10 9 10 9 9 10 10 11 13 14 14 14 15 16 17 20 22 22 21 19 18 18 18 18 18 18 17 17 17 16 16 16 15 15 14 12 12 12 10 9 8 6 6 6 7 7 7 6 7 8 8 9 9 9 9 8 8 7 7 6 6 7 7 6 6 5 5 6 6 6 5 5 3 2 2 3 2
8 10 11 7 3 6 5 2 3 6 6 6 6 7 5 6 4 1 2 6 6 4 5 5 5 7 8 8 10 12 13 14 14 16 17 19 21 22 21 20 19 19 18 18 18 18 18 18 18 17 16 15 15 16 16 14 13 13 12 11 10 9 8 7 8 7 8 7 7 8 8 8 9 9 9 8 8 8 8 7 6 6 7 6 6 5 5 6 6 6 5 5 4 2 1 2 2
5 7 11 10 5 6 7 5 5 6 4 5 5 8 5 7 5 6 2 2 5 3 2 4 6 7 8 7 7 9 11 13 13 15 16 19 21 22 22 22 21 20 19 18 18 18 18 18 18 18 16 15 15 16 17 16 14 14 13 12 11 10 9 8 8 7 7 6 6 8 8 8 8 8 8 8 8 8 8 8 7 6 6 6 5 5 5 5 5 6 5 5 4 2 2 2 3
2 7 7 9 9 9 9 7 7 6 1 2 6 8 4 5 7 7 5 6 8 5 2 2 5 7 9 9 9 9 10 11 12 14 15 17 20 22 22 22 22 20 20 19 19 19 19 18 19 19 17 16 16 17 18 18 16 15 14 13 12 11 9 8 8 7 6 6 6 7 7 7 8 8 8 8 8 9 8 8 7 7 6 5 5 5 5 5 5 5 6 6 5 3 2 2 2
1 7 4 5 6 9 9 8 8 5 3 5 8 7 6 4 7 6 7 8 8 7 6 5 2 2 8 11 11 13 13 13 12 13 14 17 20 22 23 23 22 22 20 20 19 19 19 19 19 19 18 16 16 17 19 19 17 15 14 14 12 11 10 8 8 8 7 6 6 6 6 7 7 7 7 8 8 9 9 9 8 7 7 6 5 5 5 5 5 6 7 7 6 4 3 3 2
1 4 4 3 4 6 7 8 7 5 5 8 9 9 7 3 6 4 5 7 8 7 6 7 7 5 4 10 12 13 13 13 13 13 14 17 20 22 22 23 23 23 21 20 20 19 19 19 19 19 19 17 17 18 19 20 18 16 15 15 14 13 11 9 8 8 8 7 6 6 6 6 6 7 7 8 8 8 8 8 8 7 7 6 5 5 5 5 6 7 7 7 7 5 4 4 3
2 5 6 5 5 5 5 6 5 6 7 10 10 10 10 3 5 5 6 7 8 7 6 7 7 7 6 5 10 12 11 12 13 13 14 17 20 21 21 22 22 23 21 21 21 20 20 19 20 20 20 18 18 18 19 19 19 17 16 16 16 14 13 11 10 9 8 8 7 7 6 6 6 7 7 7 8 8 8 8 7 7 7 6 6 5 5 6 6 7 7 8 7 7 6 5 4
5 7 7 7 6 5 5 5 5 6 7 10 11 9 7 4 4 6 7 7 8 8 7 9 8 8 8 6 5 9 10 10 12 12 13 15 17 19 21 21 21 22 21 21 21 21 20 20 20 20 20 19 18 19 19 19 18 18 17 17 17 16 14 13 12 11 10 9 9 7 7 7 7 7 7 7 8 8 8 8 7 7 7 7 7 6 5 5 5 6 7 8 8 8 7 6 5
8 8 8 7 7 6 7 7 7 7 6 8 11 8 3 3 6 6 8 8 8 8 8 9 9 9 7 7 5 5 9 9 10 10 11 12 14 17 19 20 21 21 22 22 21 21 20 20 21 21 21 21 20 19 20 20 19 18 19 18 17 16 15 14 13 12 11 11 10 9 8 8 8 8 8 8 8 9 9 8 8 7 7 7 7 7 6 5 5 5 6 7 8 8 8 7 7
10 9 8 7 7 7 9 8 7 8 6 6 9 8 5 6 7 7 9 9 9 9 9 9 9 9 8 7 7 1 5 7 8 10 10 10 12 17 19 20 21 22 23 23 22 21 21 20 21 22 22 22 21 21 21 21 20 19 19 19 18 17 16 15 14 13 12 11 11 11 10 9 9 9 9 8 8 9 9 8 8 8 7 7 8 8 6 6 6 5 5 6 7 7 7 8 8
11 9 8 8 6 6 7 7 8 9 7 8 9 7 6 8 6 6 8 9 10 10 9 10 9 9 8 8 10 9 5 2 3 7 10 11 14 17 19 20 21 22 23 23 22 22 21 21 22 23 22 22 22 22 21 21 21 20 19 19 19 18 17 16 15 13 13 12 12 11 11 10 10 9 9 8 8 8 9 8 9 9 8 8 9 8 7 7 7 6 5 6 7 7 7 8 8
8 7 8 7 4 4 4 5 7 8 8 8 7 4 5 9 8 7 7 9 11 11 12 12 12 11 11 11 12 11 10 8 8 4 4 11 16 18 18 20 21 21 23 23 22 23 22 21 23 24 24 24 24 23 23 22 22 21 21 21 21 20 18 17 16 15 14 13 12 12 12 11 10 9 9 9 9 9 9 9 9 9 9 9 9 9 8 7 7 7 6 7 7 7 7 8 8
5 7 7 2 3 3 4 2 4 7 7 8 7 7 8 9 8 7 7 9 11 12 14 15 15 14 13 13 12 11 10 9 9 8 6 6 14 18 18 19 20 20 21 22 22 23 23 22 23 25 24 24 24 24 24 23 22 22 21 22 22 21 20 19 18 17 15 14 13 13 13 12 12 11 10 10 10 10 10 10 9 10 10 10 10 10 9 8 8 7 7 7 7 7 7 8 8
3 5 5 3 2 3 4 3 5 8 7 7 8 10 10 8 5 5 6 9 12 13 14 15 15 16 14 13 12 12 12 10 8 7 8 7 7 16 18 19 20 21 21 22 23 23 23 23 23 24 25 24 24 25 24 23 22 22 22 22 23 22 22 21 19 18 16 15 15 14 14 13 13 13 12 11 11 11 11 11 10 10 10 11 11 11 10 10 9 9 8 8 8 7 7 8 8
3 2 1 2 4 6 5 4 6 9 8 6 9 11 8 3 3 5 6 9 11 12 13 14 15 16 14 13 13 13 12 11 10 9 7 7 6 9 16 18 17 19 21 22 24 24 23 24 23 23 24 25 25 25 24 24 23 22 21 23 24 23 22 21 20 18 17 17 16 16 15 15 14 14 13 13 12 12 12 12 11 11 11 11 12 12 11 11 10 10 9 9 9 9 8 8 8
2 3 3 3 4 3 5 5 5 7 8 7 8 9 6 4 5 7 7 9 10 10 12 13 15 15 13 12 12 13 12 11 10 10 8 8 10 7 10 16 17 17 20 21 23 25 24 23 24 24 23 24 24 24 23 23 24 23 21 22 23 24 23 21 20 19 18 18 18 17 16 16 15 15 14 14 14 14 13 13 13 12 12 12 12 12 12 12 12 11 10 10 9 10 10 9 9
3 5 5 5 4 3 3 5 4 4 6 7 9 8 6 6 5 6 7 8 8 10 11 11 13 14 13 12 12 11 12 12 11 10 9 10 12 13 7 6 13 18 19 20 20 22 23 23 22 23 24 24 24 23 23 22 23 23 22 22 23 24 24 23 21 21 20 19 18 17 17 16 16 16 15 15 15 15 15 14 13 13 13 12 12 13 13 12 12 12 12 11 10 10 11 11 10
3 2 2 2 4 4 5 7 5 4 5 4 7 8 7 6 4 5 7 7 8 9 10 11 12 14 13 12 12 12 12 13 13 11 11 12 14 17 18 13 5 3 10 16 19 18 19 21 21 21 22 23 24 24 23 23 22 22 23 23 23 23 24 24 23 22 22 20 19 18 18 17 17 17 17 16 16 16 16 16 15 14 13 13 13 13 13 13 13 13 13 12 11 11 12 12 12
Wind_Direction
146 151 146 153 155 158 169 194 235 193 225 224 145 130 111 104 104 118 129 132 133 139 138 133 138 131 110 109 106 78 51 58 20 69 102 117 133 137 135 132 130 128 127 129 129 129 132 130 128 122 117 116 117 116 116 117 117 118 117 117 116 116 115 112 113 116 122 124 126 129 133 139 136 129 123 118 118 111 104 104 102 99 98 102 101 96 99 98 96 98 98 101 103 98 98 102 103
150 150 147 154 159 183 181 192 260 216 217 162 89 76 93 110 114 120 130 130 113 132 146 136 130 113 92 97 108 99 68 48 50 78 102 125 129 131 135 135 131 128 126 128 128 129 130 125 122 118 116 117 115 115 116 118 118 116 113 112 111 109 109 112 120 128 129 126 128 130 134 137 131 127 127 127 126 117 107 103 103 105 102 102 102 100 103 96 92 96 98 101 102 96 96 100 102
153 150 153 161 172 210 240 215 252 251 206 84 74 75 100 112 111 115 116 108 111 133 137 129 119 101 122 119 89 88 86 68 98 104 117 133 131 133 138 135 131 127 126 129 130 130 129 126 123 118 116 115 114 114 114 114 114 111 110 110 108 108 112 119 122 121 117 118 120 122 124 122 123 120 116 122 122 111 107 110 110 106 104 104 100 99 99 89 84 87 92 95 100 102 101 102 102
157 156 165 178 203 208 233 227 268 294 83 83 82 85 100 103 106 109 109 116 127 135 130 128 115 57 99 102 78 80 91 92 113 119 129 139 134 135 138 135 133 129 128 129 129 128 129 128 124 119 116 114 112 112 113 113 113 113 114 110 108 111 117 119 114 112 112 114 114 116 113 106 111 107 98 103 109 102 98 108 108 101 105 105 100 98 94 88 83 83 89 93 99 104 105 100 96
160 168 182 214 249 223 264 241 256 295 48 62 95 95 101 105 112 117 119 129 133 133 132 135 117 96 77 62 60 96 97 105 120 128 130 131 131 135 137 136 135 131 128 126 127 126 128 129 125 123 119 115 114 113 113 113 115 117 114 108 108 114 115 110 108 113 112 107 104 103 103 102 102 98 93 92 99 97 94 98 100 99 100 99 99 97 93 91 89 90 93 95 100 106 110 106 98
165 175 203 246 277 344 276 240 159 82 39 25 93 99 104 111 120 125 126 130 131 132 136 133 124 122 92 55 60 72 86 123 129 129 127 130 134 136 136 138 136 130 125 124 124 123 127 127 125 126 121 118 117 116 115 116 118 116 111 108 112 119 114 108 107 108 104 100 96 93 95 101 98 92 91 91 93 94 98 100 95 92 90 92 94 92 89 87 90 93 95 96 100 105 109 111 110
173 185 207 244 246 232 262 3 66 77 47 20 84 103 110 115 124 129 131 133 135 137 141 131 129 120 100 100 87 62 80 125 132 129 130 134 136 137 138 139 134 128 125 123 120 122 128 125 125 126 123 122 120 119 118 120 121 118 111 105 110 116 110 109 110 103 97 95 94 93 89 90 89 85 84 86 92 96 105 108 101 95 92 91 90 90 88 88 93 94 93 94 96 98 102 108 113
189 208 230 258 224 209 255 69 67 66 72 61 80 99 112 123 131 135 136 140 146 141 141 136 128 106 98 120 95 83 105 121 128 129 132 136 137 138 139 138 134 131 127 122 118 122 127 126 127 127 125 124 122 122 121 123 122 118 109 103 107 111 107 106 108 103 97 97 96 95 91 88 86 86 84 81 86 94 103 108 104 98 93 91 91 94 94 93 93 91 88 89 91 93 99 102 104
204 224 255 271 247 199 197 95 95 80 88 95 88 98 114 130 135 139 142 141 145 137 137 141 124 104 107 103 95 106 115 118 127 131 135 138 139 140 139 140 137 135 131 126 122 122 127 130 132 131 129 127 125 121 120 121 119 112 104 102 105 108 108 107 108 104 98 97 97 97 98 99 98 99 98 90 87 92 97 98 96 93 91 92 94 96 94 90 85 85 86 89 92 93 98 101 103
216 232 263 271 252 178 135 98 102 94 93 94 97 113 123 133 137 140 141 136 141 136 132 133 111 119 122 104 99 111 120 129 134 135 138 139 141 141 139 140 138 138 135 130 127 127 132 136 138 137 136 134 127 120 118 117 115 109 104 104 106 110 110 108 107 104 101 100 100 102 104 107 110 111 107 105 103 98 96 96 95 95 95 94 93 90 86 83 83 86 88 89 91 92 95 100 104
237 222 256 273 239 127 104 97 102 104 106 102 106 122 126 130 138 138 136 137 144 136 134 134 115 121 118 101 94 110 126 138 141 139 140 141 143 141 138 138 140 140 136 131 130 133 137 140 140 140 139 136 128 120 118 115 111 109 108 108 106 109 106 104 106 107 110 109 106 107 109 112 114 113 109 109 109 103 100 101 102 103 102 99 94 87 83 81 83 88 90 92 90 91 94 98 105
264 228 252 269 43 70 83 99 97 107 118 117 121 125 126 134 139 141 140 142 144 138 137 136 127 128 117 104 102 123 137 143 142 141 141 143 142 141 138 138 141 139 135 133 131 134 136 137 136 138 138 133 128 122 118 114 108 106 109 109 106 108 105 104 109 111 109 105 105 107 109 110 111 112 111 111 110 109 108 104 103 103 103 100 97 91 84 77 76 84 93 97 94 94 96 98 103
271 306 285 280 44 62 94 103 109 130 128 119 128 127 140 147 141 143 143 145 145 140 134 130 134 129 111 108 119 136 144 145 144 144 143 145 143 141 139 138 140 138 136 133 132 133 133 134 134 137 136 130 126 120 117 113 108 105 106 107 108 107 107 109 112 110 103 101 105 108 111 111 112 113 111 114 116 114 110 103 99 101 101 100 100 95 89 80 73 80 89 93 94 97 98 98 101
271 314 300 295 100 126 104 114 134 141 116 113 126 133 158 143 132 145 149 150 140 123 124 133 138 121 113 124 136 148 148 146 146 146 146 145 142 141 140 139 139 138 137 135 132 132 134 135 134 133 129 126 122 117 116 111 109 108 105 106 109 107 111 114 115 113 109 110 109 110 113 114 118 114 109 112 116 113 106 102 100 101 101 101 101 100 101 97 84 80 85 88 90 95 97 101 106
278 312 289 271 135 134 100 108 124 110 108 125 136 141 152 121 142 157 144 145 123 111 124 135 145 128 143 155 152 153 151 148 148 148 146 144 143 142 140 140 140 140 138 136 134 133 137 132 129 128 126 128 125 121 118 111 111 110 107 108 108 111 114 114 116 116 115 115 112 112 114 116 118 113 109 110 113 111 107 105 102 100 98 100 101 103 108 107 98 89 88 93 96 100 102 105 108
274 296 275 250 119 106 79 81 85 94 116 132 141 148 145 129 163 149 81 110 125 133 144 138 147 147 160 161 148 149 151 151 149 148 146 143 144 142 142 144 142 141 139 137 137 136 138 131 126 126 128 131 129 126 120 117 118 114 112 109 107 111 111 110 111 111 111 112 112 113 115 116 116 113 112 114 117 113 109 105 101 100 97 96 97 99 103 102 101 98 95 99 101 103 106 105 102
261 268 258 162 91 74 50 54 63 80 117 131 146 160 151 139 157 130 108 171 131 133 142 130 130 136 150 143 139 145 150 151 151 150 147 145 147 146 147 148 147 146 144 142 141 140 140 133 128 129 131 130 130 127 124 123 118 114 110 104 106 108 106 105 105 105 107 109 108 108 112 115 115 114 113 115 119 116 111 105 100 98 93 92 92 91 94 94 96 97 98 99 99 98 99 99 96
244 251 249 89 72 64 42 42 57 70 122 140 156 170 160 148 151 147 156 152 127 123 123 124 122 117 121 126 136 144 150 153 155 154 151 151 151 152 152 154 155 153 150 148 146 146 144 139 132 133 134 132 134 130 128 125 117 118 115 107 109 108 103 101 103 105 108 111 110 108 110 113 113 113 112 113 115 114 110 104 99 95 90 92 92 86 87 90 92 94 95 93 94 94 94 95 95
242 272 305 81 62 68 54 41 54 51 93 140 159 175 176 151 149 165 171 149 141 139 138 141 128 120 122 132 141 147 152 155 159 159 155 157 156 155 155 157 159 156 154 153 151 152 149 144 136 136 138 135 136 133 131 128 123 125 121 115 113 108 105 105 107 109 110 116 117 116 114 111 111 113 117 118 115 111 107 101 98 97 98 99 96 90 87 90 93 93 88 82 80 84 91 97 99
229 257 162 90 63 69 62 38 42 46 76 149 159 170 180 152 151 174 172 152 160 161 154 154 140 138 140 143 147 150 155 159 162 163 160 160 160 159 158 157 160 159 157 154 154 157 154 147 141 142 141 139 139 136 134 133 131 128 122 120 113 109 110 110 111 110 111 118 120 118 114 111 111 115 118 117 113 109 104 102 102 105 106 102 97 98 95 91 91 86 78 74 70 75 88 97 99
200 242 59 86 53 42 50 32 35 46 83 154 157 167 175 159 162 175 170 160 170 176 162 155 149 150 150 149 152 155 159 162 165 166 163 163 163 162 160 158 158 157 156 155 155 159 157 151 148 147 145 145 144 139 136 134 133 129 126 124 117 116 114 113 114 111 113 118 120 120 117 115 115 117 117 113 115 117 112 109 109 111 111 105 102 107 107 97 92 84 75 80 82 81 88 93 94
252 235 324 62 336 8 21 16 33 34 85 141 160 172 163 159 175 183 179 156 124 157 154 147 150 155 155 154 155 158 162 165 167 167 166 166 164 163 161 158 157 155 157 158 158 161 159 156 153 152 149 148 145 141 138 134 133 132 129 127 123 120 116 117 117 114 118 118 119 123 122 119 119 120 118 117 122 125 123 123 123 122 121 115 108 110 111 101 95 88 80 82 83 84 85 86 88
252 213 194 295 316 343 336 354 30 12 74 141 164 162 151 165 178 185 183 91 68 126 137 140 148 155 157 157 158 160 164 168 169 168 168 167 165 164 161 158 158 158 160 161 160 161 161 159 156 154 151 147 143 140 139 135 135 135 132 130 126 124 122 121 119 118 121 120 118 121 123 121 122 122 122 124 126 125 125 128 127 122 122 120 114 111 108 99 91 84 80 78 75 80 83 86 89
245 243 212 286 308 313 315 341 5 322 278 145 150 145 166 179 165 175 177 113 97 122 131 139 145 152 157 159 162 162 164 168 169 168 168 168 166 164 161 159 159 159 162 163 161 162 163 162 158 155 152 150 147 144 142 139 138 135 132 131 129 127 124 121 120 120 117 112 108 107 113 118 121 123 126 128 128 127 126 125 121 117 118 117 115 113 106 98 91 84 82 78 74 76 79 84 90
230 248 271 294 292 298 305 310 315 268 204 149 154 161 174 177 154 169 169 127 122 127 132 140 143 152 159 161 163 162 164 168 167 167 169 168 164 162 162 160 160 161 164 165 163 164 164 163 161 158 154 153 152 149 144 141 138 134 131 131 130 128 125 123 121 118 112 106 101 98 102 108 115 121 124 127 127 127 124 120 117 115 116 117 116 112 105 100 95 88 84 80 76 75 76 78 84
210 244 286 297 288 295 295 295 297 184 173 154 164 171 161 166 166 164 158 135 132 136 137 143 148 155 161 163 165 163 165 167 166 168 168 166 164 164 164 164 163 165 166 166 166 165 164 165 165 162 157 156 155 152 146 143 140 135 133 131 131 128 126 124 119 115 111 106 104 106 106 104 108 116 120 122 124 123 121 118 117 119 118 117 116 111 108 107 102 95 89 85 81 77 76 75 80
162 262 286 283 281 280 275 289 272 171 163 167 173 160 151 169 186 167 153 146 141 144 145 148 153 158 163 164 165 166 167 168 167 167 167 166 167 168 168 168 169 168 167 169 167 164 166 167 167 164 161 158 157 154 148 144 142 139 135 132 131 129 126 122 119 116 111 108 108 109 107 102 101 109 114 117 119 118 117 119 122 123 118 117 116 114 115 113 109 104 95 88 84 82 81 78 83
281 275 282 259 259 252 258 281 192 174 161 176 176 148 153 175 194 165 152 155 152 151 151 155 159 160 164 165 164 169 169 169 169 170 171 170 171 173 172 172 172 169 170 173 168 165 167 168 168 166 163 159 158 155 150 148 146 144 139 135 132 129 127 123 121 118 112 111 108 104 103 102 101 106 108 109 112 114 117 121 123 120 117 116 114 115 119 117 116 111 100 91 91 92 89 85 90
262 267 273 240 234 216 193 97 176 172 161 174 168 141 167 183 181 147 147 157 157 156 156 160 164 160 165 166 164 170 171 170 173 176 176 174 174 176 176 174 174 172 173 174 169 168 168 167 168 167 164 161 161 158 152 153 152 149 145 140 137 134 132 128 124 121 116 114 112 108 110 109 103 105 110 109 111 115 118 121 122 120 117 116 115 118 121 121 119 115 107 98 100 102 98 90 91
251 237 249 237 213 181 119 118 170 159 153 172 163 124 169 180 168 142 148 161 161 161 161 164 166 162 166 167 166 171 172 174 177 179 178 177 178 179 179 177 177 174 172 174 173 172 168 165 168 168 166 165 167 163 155 157 156 154 151 144 142 141 138 133 128 125 122 121 120 117 117 114 109 112 118 117 119 121 121 122 123 123 120 119 122 124 123 122 118 114 110 104 107 107 101 93 89
233 209 220 235 208 151 102 130 173 154 153 182 176 138 146 160 157 147 153 164 165 165 164 166 167 165 169 168 172 174 173 178 180 179 178 179 180 180 181 179 179 176 172 176 175 174 170 167 170 168 167 169 170 166 161 162 160 157 155 150 150 148 143 137 133 132 130 127 126 126 125 123 123 127 129 129 131 131 128 127 126 127 128 126 125 126 122 118 115 110 106 109 113 108 106 105 95
216 211 202 215 205 139 108 129 177 149 155 192 203 178 134 140 144 147 157 167 170 169 165 168 168 168 171 170 176 177 174 180 181 181 179 180 180 180 182 180 181 179 176 178 175 176 175 169 171 170 168 170 170 169 167 164 163 162 158 155 155 153 148 140 137 137 134 132 133 136 138 137 134 137 140 140 141 140 138 134 132 134 134 130 127 126 120 116 114 106 99 106 110 110 118 117 106
203 218 207 199 202 174 126 128 140 112 151 184 206 223 97 114 134 146 160 169 172 173 167 169 170 169 173 172 176 178 176 177 182 184 181 181 182 180 182 181 183 182 180 180 176 178 178 172 173 172 169 170 169 170 170 169 168 166 161 161 160 158 153 143 141 141 138 140 139 141 147 150 149 145 146 152 150 146 142 137 138 143 143 140 137 131 128 126 124 115 108 106 109 116 125 116 110
190 205 210 195 203 206 151 136 128 147 188 184 195 222 75 98 129 147 161 173 176 178 172 171 171 171 173 175 178 178 179 178 182 185 181 182 184 181 182 181 183 184 183 183 179 181 180 175 175 173 171 171 169 170 172 172 171 167 166 167 166 165 160 149 147 145 145 147 144 149 153 153 159 155 155 159 152 147 145 140 141 147 151 150 147 148 145 139 141 132 125 121 117 123 117 105 99
196 192 202 193 192 208 160 126 119 170 203 186 189 212 130 118 130 147 164 178 183 181 177 175 174 175 175 178 181 179 180 181 182 184 182 183 183 183 183 181 184 185 186 186 182 182 181 179 177 173 173 173 170 171 171 171 171 170 171 170 171 174 171 161 155 151 151 151 149 157 155 154 164 160 159 160 149 146 147 143 144 149 151 150 155 165 163 159 158 144 133 129 129 143 140 98 77
211 188 204 207 191 195 133 96 96 174 204 187 188 201 183 158 146 157 170 178 189 187 183 183 179 180 179 180 183 179 182 183 180 182 182 183 183 183 182 181 184 186 187 186 183 183 182 180 179 176 177 176 172 170 171 173 173 174 175 173 175 179 179 171 165 160 156 151 149 156 154 156 162 157 158 158 150 147 144 143 146 147 145 146 159 170 165 160 157 151 141 133 139 169 178 184 102
223 179 196 206 198 177 128 107 101 187 236 190 186 205 195 180 159 163 172 177 192 194 190 191 186 185 185 185 184 179 183 181 178 181 182 182 182 181 181 180 183 184 185 185 184 185 183 182 181 179 179 179 176 173 175 177 176 176 178 178 178 179 179 176 173 171 162 152 150 154 154 156 158 155 156 156 155 152 145 145 147 144 144 149 159 171 160 149 150 150 145 146 159 170 168 162 111
217 205 191 198 209 166 121 121 106 144 244 165 162 218 192 184 169 159 172 187 196 199 195 194 191 189 186 188 186 179 181 179 175 179 181 182 181 179 180 180 182 183 183 185 186 186 184 185 185 182 181 182 182 178 177 179 179 179 179 181 180 175 176 178 176 170 159 148 148 154 155 156 156 152 153 155 158 157 149 147 149 150 152 154 161 166 157 150 154 156 156 163 171 174 173 137 104
214 220 207 206 208 175 131 141 124 146 254 150 144 221 188 172 172 161 179 197 200 201 199 194 190 190 188 187 185 180 180 179 176 178 181 182 182 180 181 182 184 184 183 185 187 186 185 187 187 185 183 184 184 181 180 182 182 182 181 182 181 174 176 178 164 153 152 147 149 155 157 157 157 154 154 155 159 159 153 150 153 157 159 160 164 162 162 166 166 172 173 168 171 180 183 145 136
220 216 216 207 190 201 187 156 152 175 261 275 152 236 200 164 173 179 192 204 206 203 202 199 191 190 191 186 184 182 180 179 178 178 182 184 183 184 184 185 186 186 186 186 187 187 187 189 189 186 185 185 185 183 183 184 182 181 180 179 179 174 171 175 167 160 159 153 153 158 161 163 162 159 158 158 160 158 153 154 155 157 160 162 164 161 170 178 174 178 178 173 180 181 168 149 145
216 218 228 215 175 215 236 135 169 204 209 238 238 233 208 177 187 189 189 200 209 206 200 202 198 191 192 189 186 185 182 181 180 180 182 184 185 186 186 187 189 189 189 188 187 188 189 191 189 187 185 184 185 184 183 184 182 181 181 178 180 180 175 179 184 178 169 167 166 162 163 166 165 163 162 161 161 157 156 158 156 156 159 162 165 166 175 180 177 179 179 181 189 180 148 143 138
210 214 226 238 181 211 236 161 208 220 191 187 222 234 189 161 166 86 160 195 196 202 194 198 213 197 187 195 194 190 186 183 184 182 181 184 187 187 187 189 192 192 191 191 190 189 189 189 189 188 186 184 184 185 184 185 186 186 187 186 187 189 191 193 193 183 173 174 167 155 157 165 167 166 166 164 161 160 160 162 162 159 159 164 168 173 179 181 181 181 181 184 185 169 136 146 160
206 186 207 229 235 219 224 220 220 227 189 148 212 243 183 134 80 42 31 146 129 127 164 179 210 202 180 191 202 198 197 189 186 188 185 184 186 187 188 190 194 194 192 191 192 191 189 187 187 188 188 186 185 185 186 188 191 192 193 195 196 196 196 193 192 185 174 171 158 149 155 164 169 169 167 166 163 163 163 163 167 164 162 167 170 179 188 186 185 184 185 185 183 177 158 176 191
175 119 178 214 221 222 220 222 224 233 281 147 205 240 219 138 84 72 88 86 91 87 54 154 201 200 183 190 195 195 206 202 191 190 191 188 185 187 188 190 194 195 191 191 193 192 189 186 186 187 189 189 187 187 189 192 194 195 196 199 202 203 202 193 187 185 174 168 162 158 161 163 169 171 168 168 166 165 165 164 168 167 164 169 172 185 193 190 188 187 189 188 189 195 183 188 219
136 105 173 198 206 219 211 216 223 221 255 224 196 209 227 159 100 89 95 77 62 49 27 21 2 225 194 199 199 191 198 207 201 195 194 191 188 188 189 188 192 195 192 191 192 191 188 186 185 186 188 189 190 191 194 197 197 195 196 200 202 203 204 197 189 188 181 178 177 173 169 166 170 173 172 173 170 170 168 166 169 168 167 170 174 186 190 190 192 192 197 194 195 206 205 204 215
128 124 190 171 178 207 204 213 214 198 229 230 191 185 214 159 92 75 71 53 26 22 20 14 2 337 234 208 207 198 195 201 203 200 197 194 191 190 190 189 190 193 192 190 190 190 187 186 185 186 188 189 192 194 198 201 199 197 198 200 203 201 200 199 193 188 184 185 188 187 184 179 179 179 180 181 178 177 174 171 173 172 172 174 175 181 186 193 198 197 201 200 201 209 216 227 226
175 172 190 176 175 188 197 212 211 198 215 225 204 193 218 214 81 56 43 33 12 8 10 10 359 341 328 239 211 204 201 202 202 201 198 196 195 192 192 191 191 191 191 188 189 191 188 187 186 186 189 189 191 195 199 202 200 201 202 202 204 203 199 198 195 191 189 192 196 195 194 192 190 188 186 187 187 186 182 179 181 179 179 180 180 185 189 195 202 202 205 205 209 214 219 233 244
207 199 192 179 172 174 190 191 204 215 212 215 202 186 216 227 86 59 42 32 17 13 9 7 0 349 346 322 245 211 206 205 202 201 198 195 195 195 194 193 191 191 190 188 189 190 189 188 187 187 189 189 191 195 199 202 202 203 205 205 207 206 203 202 200 198 196 198 201 200 197 196 196 195 191 191 191 190 189 188 188 186 185 186 187 190 192 196 200 201 204 209 214 218 224 231 238
207 202 192 185 174 175 191 184 194 214 210 202 189 174 170 92 75 53 40 33 23 21 14 10 4 359 359 345 316 231 210 209 204 201 199 195 193 196 196 192 190 190 190 190 190 190 188 188 187 187 189 190 192 195 198 201 202 204 206 207 208 207 207 207 205 204 201 201 203 203 202 199 197 199 198 198 195 192 193 195 195 194 191 192 193 191 193 197 198 199 205 211 216 218 224 228 231
202 203 193 193 186 180 191 188 192 206 199 173 173 182 174 117 83 54 50 39 30 30 22 20 15 9 14 11 7 349 209 215 214 205 202 203 196 196 197 193 191 191 191 191 191 190 188 187 188 188 191 192 193 194 197 200 202 205 206 207 208 207 208 209 209 209 206 203 203 205 207 205 202 203 204 204 200 197 198 199 199 201 200 200 202 199 197 201 202 203 207 212 215 216 216 220 225
195 206 204 210 212 198 196 195 192 193 179 155 162 187 181 142 104 64 64 51 41 41 34 32 28 23 26 26 27 30 30 350 258 212 203 213 207 197 197 195 192 193 193 193 193 190 187 187 188 189 190 191 193 194 196 199 202 204 206 207 208 208 208 210 212 212 209 205 205 206 208 208 206 205 204 205 203 202 203 204 204 207 208 209 210 205 202 207 209 208 209 211 212 210 209 214 221
183 204 218 222 236 233 219 205 201 197 178 161 165 159 116 121 116 91 73 58 50 46 42 40 35 31 34 32 29 25 22 16 357 332 220 219 214 202 198 197 195 196 196 195 194 192 190 188 188 190 191 191 193 195 195 199 201 202 204 206 208 209 209 210 211 212 211 209 209 208 206 207 208 204 203 202 202 204 206 208 209 211 212 213 211 207 205 210 212 211 211 212 211 209 210 214 220
179 195 210 189 16 295 256 197 205 216 192 161 149 119 111 131 126 94 65 55 51 45 42 41 38 34 34 34 29 22 18 12 359 350 338 261 220 208 203 200 197 198 200 199 197 195 193 192 190 191 191 191 193 195 197 198 199 200 202 205 207 209 210 212 213 213 213 213 214 212 210 208 209 208 206 206 206 206 209 211 215 216 215 216 214 210 210 211 213 218 218 215 214 212 213 217 221
232 195 183 112 49 284 269 220 192 206 197 164 157 146 147 171 150 84 52 44 44 44 44 42 41 36 34 35 30 24 19 10 3 355 346 328 244 214 208 206 201 199 201 201 199 198 197 196 196 194 192 192 193 196 197 197 198 200 201 204 206 208 211 214 216 216 216 216 215 215 213 211 209 209 209 209 208 209 211 213 217 219 217 217 217 214 214 213 215 222 224 221 220 215 216 221 222
300 299 158 182 217 210 219 230 198 199 198 165 157 155 147 154 104 69 45 37 38 43 44 41 41 38 35 34 28 26 26 16 11 8 353 345 319 238 215 211 207 204 204 202 199 199 201 201 201 200 198 197 197 198 198 196 198 200 202 204 205 207 210 213 215 216 215 216 215 214 214 212 210 209 207 207 208 210 213 214 216 219 218 217 217 217 217 216 216 220 223 224 221 217 220 225 224
231 255 221 226 251 219 208 224 212 208 199 161 158 167 141 73 60 57 49 45 41 43 45 42 43 41 38 33 26 25 28 23 17 13 7 2 356 323 235 213 208 211 209 204 201 202 205 207 204 202 201 201 202 202 198 197 199 201 202 203 204 206 209 210 212 213 214 215 215 215 216 214 211 210 208 207 210 213 215 215 216 217 217 216 217 218 218 217 218 219 224 226 221 217 221 227 228
210 221 208 198 227 257 247 231 232 252 222 177 178 181 131 81 65 63 63 60 49 49 52 49 48 46 43 36 30 27 26 28 26 20 19 19 13 4 343 224 207 213 210 205 206 207 208 210 208 205 203 202 204 204 201 201 201 201 200 201 203 204 207 208 209 211 213 216 216 217 218 216 214 213 210 210 211 213 215 216 218 218 218 218 217 219 220 219 220 220 222 227 223 219 222 226 228
331 279 255 227 228 228 224 216 212 260 275 221 188 167 118 92 86 82 76 69 60 56 56 56 53 50 46 38 32 30 28 29 30 26 30 32 25 18 15 21 29 252 221 206 210 215 213 212 211 209 207 205 204 203 202 202 202 201 201 202 203 204 205 207 208 210 213 216 217 217 216 215 216 215 214 213 213 213 214 215 217 219 220 221 219 220 221 220 222 222 222 225 224 221 224 227 228
Height
792 793 793 794 792 793 793 794 803 798 797 806 802 802 798 787 788 792 795 793 792 791 783 781 781 783 788 790 792 794 796 803 806 809 816 813 808 813 814 817 819 821 824 825 827 829 830 831 833 833 833 834 835 836 837 838 839 840 841 842 842 843 844 845 845 844 844 844 844 844 844 844 844 845 845 846 846 847 847 847 847 847 847 847 848 848 848 849 850 851 853 855 854 853 853 853 852
793 793 793 794 792 796 794 792 807 802 796 805 795 793 793 785 790 794 793 791 790 788 781 779 781 784 785 783 785 792 800 800 796 799 804 805 809 814 815 818 819 822 824 825 828 829 830 831 832 833 834 835 836 837 838 839 840 841 841 842 843 844 845 845 844 844 844 845 844 844 844 844 845 845 846 846 846 847 848 848 848 847 847 848 848 848 849 849 850 851 853 855 856 855 854 854 854
793 793 793 794 792 794 794 796 804 797 797 805 795 785 785 787 791 792 788 788 786 782 780 781 785 787 787 790 790 796 804 798 794 798 803 806 809 813 817 818 820 823 824 826 828 829 830 831 832 834 835 836 837 838 839 840 841 842 842 843 844 845 844 844 844 845 845 845 844 844 845 845 846 847 847 847 847 848 849 848 848 848 848 848 849 849 849 850 851 852 853 855 857 857 855 854 856
792 792 792 792 793 794 796 801 796 789 792 795 798 788 783 789 790 790 787 786 782 780 783 785 791 789 787 798 795 796 805 799 796 800 804 807 808 813 817 818 821 823 825 827 828 830 831 831 833 834 835 836 837 839 839 841 842 842 843 844 845 845 844 845 846 846 845 845 846 846 846 846 847 848 848 848 848 849 850 849 849 849 849 850 849 849 849 850 851 852 853 854 857 858 857 855 856
792 792 792 791 795 795 792 794 786 786 788 786 798 793 784 788 789 791 787 785 781 782 785 786 795 791 788 796 794 801 807 801 800 800 803 806 809 814 816 819 821 823 825 827 829 831 831 832 834 835 836 837 838 839 840 841 842 843 845 846 846 845 846 847 847 846 847 847 848 848 847 847 848 849 849 849 850 850 851 851 850 850 850 851 851 850 849 850 852 853 853 854 856 858 859 858 857
792 792 791 791 791 791 792 789 781 785 787 781 791 791 785 787 787 790 787 786 782 782 784 785 792 792 795 797 793 800 803 801 803 801 804 807 811 814 817 819 821 823 826 827 830 831 832 833 835 836 837 838 839 840 841 842 843 845 847 848 847 846 847 848 848 848 849 849 849 849 848 849 850 851 851 851 851 852 852 852 852 851 851 852 852 852 851 851 853 854 854 854 856 857 859 859 859
790 793 793 793 790 790 794 787 780 786 790 781 784 788 786 786 786 788 790 791 789 786 784 784 784 791 802 799 798 801 799 801 801 803 807 809 813 815 818 820 822 824 826 828 830 831 833 834 835 837 837 839 840 841 842 843 845 847 848 849 849 848 848 848 849 849 850 851 850 850 850 850 851 853 853 853 853 854 854 853 852 852 852 853 853 853 852 852 853 855 856 856 857 857 859 859 860
790 792 789 793 794 791 789 784 782 785 788 783 781 786 786 786 786 789 793 795 794 790 787 784 781 795 804 796 804 805 800 802 802 806 809 810 814 816 819 820 822 825 827 829 830 832 833 834 836 837 839 840 841 843 844 844 846 847 849 851 850 849 849 849 850 851 851 851 852 851 851 851 852 854 855 856 856 855 855 854 854 854 854 854 854 854 853 854 854 855 857 857 857 857 858 859 860
788 790 789 793 794 790 786 784 787 785 786 785 784 787 786 785 784 789 793 793 792 790 790 785 783 801 806 799 807 804 801 806 805 809 810 813 815 817 820 821 824 825 828 830 831 833 834 836 837 839 840 842 843 844 844 845 847 848 850 851 850 850 850 850 851 851 851 852 853 852 851 851 853 854 855 856 857 857 857 857 857 857 856 855 854 854 855 855 856 857 858 858 858 858 858 859 860
788 788 790 794 791 790 788 786 791 790 787 786 787 788 787 785 785 788 790 792 790 790 790 783 787 801 803 804 809 804 804 808 808 811 812 815 816 819 821 822 826 826 829 831 832 834 836 838 838 840 841 843 844 844 845 846 847 850 851 851 851 851 851 852 852 852 852 853 854 853 852 852 853 855 854 854 856 857 859 859 859 859 858 857 854 854 854 855 857 859 859 859 859 859 859 860 860
792 787 787 795 791 790 789 788 792 792 788 787 788 787 785 785 787 788 789 792 789 791 789 785 794 799 801 807 808 805 806 808 810 812 813 816 818 820 822 824 827 828 830 831 834 836 837 839 839 841 842 843 844 844 846 846 848 850 852 851 850 850 852 853 853 853 854 854 855 855 854 853 854 855 855 854 855 857 860 860 861 861 860 859 856 855 854 856 859 860 860 860 860 861 862 862 862
795 791 788 797 793 789 786 786 791 791 791 792 792 787 784 785 789 791 792 794 790 792 791 788 794 794 803 811 808 807 807 809 811 813 815 817 819 821 823 825 828 829 831 832 835 836 838 839 840 842 842 844 844 845 846 846 848 850 852 852 850 850 852 854 854 854 854 855 855 856 856 855 854 855 856 855 856 858 860 861 862 862 862 861 860 859 857 857 860 862 862 862 862 863 863 865 865
793 792 792 796 790 789 786 786 792 791 793 794 792 788 785 787 790 790 791 792 791 796 793 787 787 790 805 810 807 807 807 809 811 814 816 818 820 822 824 826 829 831 832 834 835 837 838 840 841 842 843 844 845 846 846 847 849 851 852 852 852 852 853 855 856 855 855 856 856 857 857 856 856 856 856 856 856 858 859 861 863 863 863 863 863 862 861 859 861 863 864 864 864 864 864 865 866
788 788 792 794 788 789 787 788 789 788 793 789 787 788 786 787 787 785 788 793 793 794 790 782 783 794 807 810 811 808 807 810 812 816 816 819 821 822 825 827 829 831 833 834 836 837 839 840 841 842 843 845 846 846 847 848 849 851 852 853 853 853 854 855 857 857 856 857 856 856 857 858 859 858 857 856 857 859 859 861 863 864 864 865 865 865 865 864 863 864 866 866 866 865 865 867 868
785 785 790 792 788 788 787 788 785 786 793 787 786 788 788 788 785 786 788 794 794 785 783 783 784 796 805 807 811 805 805 810 812 816 817 820 822 823 826 827 830 832 833 835 836 838 839 840 841 842 844 845 847 847 848 849 850 851 851 852 853 854 855 855 857 857 857 858 857 857 858 860 862 860 858 857 857 859 860 862 863 864 865 865 866 867 869 869 867 866 867 868 868 869 869 870 870
781 785 791 790 788 790 787 786 786 789 791 785 785 786 791 791 784 789 789 788 791 783 784 789 787 792 797 798 802 800 805 811 813 817 818 820 822 824 827 828 831 832 834 835 837 838 839 841 841 843 845 846 847 848 849 850 850 851 851 853 853 854 856 856 856 857 857 858 858 858 859 861 863 862 860 858 859 860 861 862 863 865 865 865 866 867 868 869 870 869 869 870 871 871 871 871 872
780 787 793 789 790 794 789 787 792 793 789 786 787 786 793 795 787 787 785 783 789 789 788 789 786 787 790 791 796 800 807 811 813 817 818 821 822 824 827 829 831 832 834 836 837 839 839 841 842 844 845 847 848 848 850 850 851 852 852 853 854 855 855 856 856 857 858 858 858 859 860 861 863 863 861 860 860 861 862 863 864 865 865 865 866 866 866 868 869 870 871 871 871 872 872 872 872
786 790 791 791 793 794 789 787 787 786 786 787 788 787 790 795 792 788 787 790 792 794 793 790 789 787 788 792 797 803 808 811 813 816 818 820 821 824 826 828 830 832 834 836 838 839 840 841 843 845 846 847 848 849 850 850 852 853 853 854 855 855 855 856 857 858 859 859 860 860 861 861 862 864 863 861 860 862 863 863 864 865 866 866 866 865 866 868 870 870 871 871 872 872 872 872 873
788 789 790 793 791 786 780 780 781 781 784 785 786 787 787 790 791 788 793 798 796 800 800 794 795 794 793 796 801 805 808 811 813 815 817 818 820 823 825 828 830 831 833 836 838 839 840 842 843 845 846 847 848 849 851 851 852 853 854 854 855 855 856 857 858 859 860 860 861 861 861 861 862 864 864 863 862 863 864 865 865 865 867 867 866 866 867 868 870 871 872 872 872 872 872 873 873
785 787 793 791 784 780 774 776 777 777 780 784 786 785 786 786 785 787 793 799 798 801 800 797 802 802 799 799 802 806 808 811 813 814 817 818 820 822 824 827 829 831 833 835 837 839 841 842 844 845 846 848 849 849 851 852 853 853 854 854 855 856 857 858 859 860 860 861 861 861 861 861 862 863 864 865 864 865 865 866 866 867 867 867 867 867 868 869 870 872 872 872 872 872 873 874 874
783 785 790 785 780 781 776 773 774 774 777 782 784 785 788 784 781 787 791 797 801 796 791 792 799 801 800 800 802 806 808 810 812 814 816 818 820 822 824 826 829 831 833 835 837 840 841 842 844 845 846 847 849 850 850 852 853 854 854 855 856 856 858 859 860 861 861 861 861 862 862 862 863 864 865 866 867 867 867 867 868 868 868 868 868 869 870 871 872 873 873 873 873 874 874 875 875
783 782 781 779 778 782 776 770 772 773 775 780 785 787 786 782 783 786 787 794 796 788 784 785 792 796 798 799 801 804 808 809 811 813 815 818 820 822 824 826 829 832 834 836 837 840 841 842 844 845 847 847 849 850 850 852 853 854 855 856 856 857 858 859 860 861 862 862 862 863 863 864 864 865 866 867 868 869 868 869 869 869 869 869 869 870 871 872 873 874 874 874 874 875 875 875 875
786 781 775 776 775 780 775 768 772 772 775 782 784 782 780 785 788 784 784 789 785 779 779 783 787 792 795 798 800 803 806 808 810 812 815 818 820 822 824 827 829 832 834 836 837 840 841 842 844 845 846 847 848 849 850 852 853 854 855 856 857 857 858 859 860 861 862 862 863 864 864 864 865 866 867 868 869 869 869 869 869 869 869 870 870 871 871 872 873 874 874 875 875 875 875 875 875
787 784 777 776 773 775 772 767 770 770 776 778 776 779 782 789 789 783 784 785 780 778 779 782 786 790 795 798 800 802 805 808 810 813 816 818 820 822 824 827 829 832 834 836 837 839 841 842 844 845 846 847 848 849 851 852 853 854 855 856 857 858 859 859 860 861 862 862 863 863 864 865 866 867 868 868 869 869 870 869 869 870 870 871 871 872 872 873 874 874 875 875 875 875 875 875 875
785 784 777 775 773 771 767 766 768 769 772 772 775 782 784 784 784 784 785 782 779 779 781 784 788 792 795 799 801 802 805 808 810 813 816 818 820 823 825 827 829 832 834 836 837 839 841 842 843 845 846 847 848 849 851 852 853 854 855 857 857 858 859 860 860 861 861 862 863 863 864 865 866 867 868 869 869 869 870 870 870 870 871 871 872 872 873 874 874 875 876 876 876 876 875 876 876
780 779 776 775 774 769 766 766 766 769 770 771 779 784 782 779 780 785 782 779 780 779 783 786 789 794 796 799 801 802 805 807 810 813 816 818 821 823 825 827 829 832 834 835 837 839 841 842 844 845 846 847 848 850 851 852 853 854 856 857 857 859 860 860 861 861 862 863 863 864 865 866 867 867 868 869 869 869 870 870 871 871 872 872 872 873 874 874 875 876 876 876 876 876 876 876 876
775 777 776 775 773 767 765 766 766 767 769 772 779 784 782 776 782 792 783 776 779 781 787 788 791 795 796 799 800 802 805 807 810 813 815 818 820 823 824 827 829 831 833 835 837 839 841 842 843 845 846 847 848 850 851 852 853 854 855 856 858 859 859 860 861 862 863 863 864 864 865 866 867 867 868 869 869 870 870 871 872 872 872 873 873 874 875 875 876 876 876 877 877 877 877 877 877
773 776 777 774 770 766 764 766 766 767 771 770 773 781 783 779 785 792 783 775 779 783 788 790 792 795 795 798 800 802 805 807 810 812 814 817 819 822 824 826 828 831 833 835 837 838 840 842 843 845 846 847 849 850 851 852 853 854 856 857 858 859 860 861 862 862 863 864 864 865 866 866 867 868 868 869 869 870 871 872 872 873 873 873 874 875 875 876 876 877 877 877 878 877 878 878 877
774 774 780 777 769 770 766 766 765 766 773 766 771 791 793 787 784 780 776 775 778 783 788 790 792 794 796 797 800 802 804 806 809 811 813 816 818 821 823 825 828 830 833 835 836 838 840 841 843 845 846 847 849 850 851 852 853 854 856 857 858 859 860 861 862 863 863 864 865 865 866 867 868 868 869 870 870 871 872 872 873 873 874 874 875 875 876 877 877 877 878 878 878 878 878 878 877
776 774 780 778 775 777 767 765 766 767 773 762 777 811 806 791 782 773 774 776 779 786 788 790 791 793 795 797 800 802 803 806 808 810 813 815 818 820 822 825 827 829 832 834 836 838 839 841 843 845 846 847 849 850 851 852 854 855 856 857 858 859 860 861 862 863 864 865 866 866 867 867 868 869 870 870 871 872 872 873 873 874 874 875 875 876 876 877 877 878 878 878 879 878 878 879 878
777 776 779 777 782 783 767 765 768 771 774 761 781 816 807 790 781 772 773 775 780 787 788 789 791 792 795 797 800 802 802 805 807 809 812 815 817 819 822 824 826 829 831 834 836 837 839 840 842 844 846 848 849 850 851 852 854 855 856 857 858 859 860 861 862 863 864 865 866 867 867 868 868 869 870 871 872 872 873 873 874 874 875 875 876 876 877 877 878 878 879 879 879 879 879 879 879
776 784 788 780 782 783 770 767 767 773 775 763 782 808 796 784 778 772 773 775 780 786 787 788 790 792 794 796 798 801 802 804 806 809 811 814 816 819 821 824 826 828 831 833 835 837 839 840 842 843 845 847 849 850 851 853 854 855 856 857 858 860 860 861 863 863 864 866 867 867 868 868 869 870 870 871 872 872 873 874 874 875 875 875 876 876 877 878 878 878 879 879 879 879 879 879 879
777 784 791 784 782 781 776 773 765 768 774 770 784 798 787 779 776 773 774 776 780 785 786 788 789 791 792 795 797 799 801 803 806 808 810 814 816 818 821 823 826 828 830 832 834 837 838 840 842 843 845 847 849 850 851 852 854 855 856 857 859 860 861 862 863 864 865 866 867 868 868 869 869 870 870 871 872 872 873 874 875 875 875 876 876 877 877 878 878 879 879 880 880 880 879 879 879
780 782 785 781 780 780 780 780 769 766 774 776 781 786 783 779 776 776 776 777 781 785 787 787 789 791 791 793 795 797 800 803 804 806 809 813 815 817 820 822 825 827 830 832 833 836 838 840 841 843 845 847 849 850 851 853 854 855 856 857 859 859 861 862 862 864 865 866 867 868 868 869 869 870 870 871 871 872 873 874 875 875 875 876 876 877 878 878 879 879 880 880 881 880 879 879 879
779 783 785 782 780 779 780 781 773 769 775 778 780 783 781 778 777 778 778 777 781 784 785 786 787 790 791 792 793 795 798 801 802 804 807 811 814 817 819 822 825 827 829 831 833 835 837 839 841 843 845 846 848 849 851 853 854 855 856 857 859 859 861 861 862 863 864 865 866 867 867 868 869 869 870 871 871 872 873 874 875 875 876 876 877 877 878 878 879 879 880 880 880 881 880 879 879
772 776 780 781 780 779 776 776 772 769 776 778 779 782 779 777 778 779 778 776 781 783 783 785 787 788 790 792 792 794 797 798 799 802 806 809 812 816 818 821 823 826 828 830 832 834 836 839 840 842 844 845 847 849 851 852 854 855 856 857 858 859 860 861 862 863 864 865 866 866 867 868 868 869 869 870 871 872 873 874 874 875 876 876 877 877 878 878 879 879 880 880 881 880 880 880 880
773 774 778 778 778 778 775 776 771 766 777 779 775 777 777 774 775 776 776 778 781 784 785 786 786 787 789 790 791 793 795 795 796 801 805 808 811 814 817 819 822 824 827 829 831 833 835 837 840 841 843 845 846 848 850 851 853 854 855 856 857 858 860 861 862 863 863 864 865 866 867 867 868 868 869 870 871 872 873 874 874 875 876 876 877 877 878 878 878 879 879 880 881 880 880 879 879
778 777 779 780 778 777 774 775 771 767 775 778 774 777 777 773 771 772 775 779 782 782 783 786 786 786 787 789 791 792 793 792 794 799 803 806 810 813 816 818 821 823 825 828 830 832 835 837 839 840 842 844 846 847 849 850 852 853 854 855 857 858 859 860 861 862 863 864 864 865 866 867 867 868 869 870 871 871 872 873 874 875 876 876 877 877 877 878 878 879 880 880 880 880 880 879 880
781 778 779 782 777 775 777 775 771 769 774 776 776 779 776 770 767 769 771 774 776 775 775 779 782 785 786 787 789 790 793 793 794 798 801 804 807 811 814 816 819 822 824 827 829 831 834 836 838 839 841 843 845 847 848 850 851 852 854 855 856 857 859 860 861 862 863 863 864 865 866 867 867 868 869 870 870 871 872 873 874 875 875 876 876 877 877 878 879 879 880 880 880 880 880 880 880
781 778 780 781 775 778 782 778 774 772 772 774 777 779 774 769 769 768 767 767 767 767 768 771 775 781 783 783 786 788 792 794 794 796 798 801 805 808 812 815 817 820 822 825 827 830 832 834 836 838 840 842 844 846 847 849 851 852 853 855 856 857 858 860 861 862 862 863 864 865 866 866 867 868 869 870 870 871 872 873 874 874 875 876 876 877 878 878 879 879 879 880 880 880 879 879 880
780 777 778 777 774 778 778 776 777 774 773 772 776 784 778 770 773 771 764 763 766 766 769 773 774 777 781 782 784 786 788 791 793 795 796 798 802 806 810 813 815 817 820 823 825 828 830 832 835 837 839 841 843 844 846 848 850 851 853 854 856 857 858 859 860 861 862 863 864 864 865 866 867 868 868 869 870 871 872 872 873 874 874 875 876 877 878 878 878 879 879 880 880 880 879 880 880
780 777 775 773 775 779 777 778 781 782 784 775 775 795 791 773 775 777 769 768 771 771 774 781 781 780 783 785 786 786 786 788 790 791 793 796 799 804 808 811 813 815 818 821 823 826 828 831 833 836 838 840 842 843 845 847 849 850 852 853 855 856 857 858 859 860 861 862 863 863 865 866 866 868 868 869 870 870 871 872 873 874 874 875 875 876 877 877 878 879 879 879 880 880 880 880 880
782 774 770 773 777 781 780 781 784 787 787 775 772 792 795 785 787 786 779 778 778 779 781 784 785 784 785 788 789 789 788 787 788 789 790 793 797 801 805 808 811 813 815 819 821 824 826 829 831 834 836 838 840 842 844 846 848 849 851 852 854 855 856 857 858 859 860 861 862 863 865 866 866 867 868 868 869 870 870 872 872 873 874 874 875 876 876 877 878 878 879 879 880 880 881 881 880
780 770 769 775 778 781 781 782 785 780 778 777 773 778 788 797 799 788 782 786 787 788 787 785 784 783 784 786 787 789 789 787 787 789 789 790 794 797 801 806 809 811 813 816 819 822 825 827 830 832 835 837 839 841 842 844 846 848 850 852 853 854 855 856 858 859 860 861 862 863 864 865 866 867 868 868 869 869 870 871 872 873 874 874 875 875 876 877 877 878 879 879 880 880 881 881 880
774 768 771 773 775 779 777 780 783 777 784 791 779 774 789 801 797 786 785 793 797 796 792 788 784 781 783 785 784 784 786 785 784 787 788 788 792 795 798 802 806 809 811 814 817 820 823 825 828 831 833 836 837 839 841 842 845 847 849 851 852 853 855 856 857 858 860 861 862 863 864 865 866 866 868 868 868 869 869 871 871 872 873 874 874 875 876 876 877 878 878 879 880 880 881 881 881
769 768 773 773 775 777 776 781 781 782 798 799 779 775 791 803 799 791 794 801 803 800 793 790 787 783 781 780 781 782 782 781 781 783 785 787 790 793 796 799 803 806 808 812 815 818 821 823 826 829 831 834 836 838 840 841 843 846 847 849 851 852 854 855 857 858 859 861 862 863 864 864 865 866 867 868 868 869 869 870 871 872 873 873 874 875 875 876 876 877 878 879 880 880 881 881 881
768 772 776 778 779 778 779 779 777 793 810 794 774 772 782 802 809 800 801 804 803 800 796 794 790 785 782 778 778 780 781 781 779 780 782 785 789 791 794 797 800 804 806 810 813 815 819 821 823 827 829 832 834 836 838 840 842 844 846 848 850 851 853 854 856 857 859 860 861 862 863 864 865 866 867 867 868 869 869 870 871 871 872 873 873 874 875 875 876 876 877 878 879 880 880 881 881
771 775 778 785 789 787 790 789 789 809 811 784 770 769 777 803 813 802 801 801 797 800 799 797 794 789 785 780 776 776 779 779 778 779 781 783 788 790 792 796 798 802 804 807 811 813 816 819 821 825 827 830 832 834 837 839 841 843 844 846 848 850 852 853 855 856 858 859 860 861 862 863 864 865 866 867 867 868 869 869 870 871 872 872 873 873 874 875 875 876 877 877 878 879 880 880 881
774 775 778 792 802 805 809 807 805 809 797 774 766 772 788 810 810 800 802 800 796 797 796 795 794 791 788 783 778 775 775 777 777 779 780 781 785 788 790 794 796 800 803 805 808 810 813 817 819 822 825 827 830 832 835 837 839 841 843 845 847 849 851 852 854 855 856 858 859 860 861 862 863 864 865 866 866 868 868 869 870 870 871 872 872 873 874 874 875 875 876 877 877 878 879 880 880
777 776 779 792 801 814 821 812 806 803 788 772 767 776 799 814 808 800 802 801 796 794 793 793 792 790 788 784 779 777 776 777 778 778 779 780 782 785 788 791 795 798 800 803 805 808 811 814 816 819 822 825 828 830 833 835 837 839 841 843 845 847 849 851 852 854 855 857 858 859 860 861 862 863 864 865 866 867 868 868 869 870 870 871 871 872 873 873 874 875 875 876 876 877 878 879 879
773 767 770 781 783 795 808 800 798 797 786 780 779 784 798 811 811 801 797 798 796 795 793 792 791 788 786 784 781 782 781 781 782 779 780 782 781 783 786 789 792 795 798 800 803 806 808 811 814 816 819 822 825 828 830 833 835 837 839 841 843 845 847 849 851 852 854 855 856 857 859 860 861 862 863 864 865 866 867 867 868 869 870 870 871 871 872 873 873 874 874 875 876 876 877 878 878
768 761 769 778 769 771 781 778 776 776 780 787 787 787 791 798 803 796 793 798 797 797 796 794 794 790 786 787 786 787 787 785 784 780 780 782 780 781 783 786 790 793 796 798 800 803 806 808 811 813 816 819 822 825 828 830 832 835 837 839 841 843 845 847 849 850 852 853 855 856 857 858 860 861 862 863 864 865 866 866 867 868 869 869 870 871 872 872 872 873 874 874 875 875 876 877 877
770 770 777 772 761 765 776 780 772 767 783 790 786 798 804 800 802 797 795 802 801 800 801 798 798 794 790 791 790 790 791 789 787 784 782 780 779 779 781 783 787 790 793 796 798 801 804 806 808 810 813 816 819 822 825 827 830 832 834 836 839 841 843 845 847 848 850 852 853 854 856 857 858 859 860 861 862 863 864 865 866 867 868 868 869 870 871 871 872 872 873 873 874 874 875 876 876
773 777 773 764 767 771 775 787 787 782 792 790 783 801 811 807 811 806 800 806 806 803 803 801 801 801 797 795 794 794 793 791 789 787 783 780 777 777 779 781 784 787 791 794 797 800 802 804 806 808 811 813 816 819 822 825 827 830 832 834 836 839 840 843 845 846 849 850 851 853 854 855 856 857 859 860 861 862 863 864 865 866 866 867 868 869 870 870 871 871 872 872 873 873 874 874 875
772 773 764 767 783 785 781 789 794 792 795 795 791 796 803 809 817 815 810 812 810 805 806 806 806 806 804 802 799 796 794 793 791 788 786 781 777 776 777 779 782 785 788 791 794 797 799 802 804 806 809 811 813 816 818 821 824 826 829 831 833 836 838 840 842 844 846 847 849 850 852 853 854 856 857 858 859 860 861 862 863 864 865 866 867 867 868 869 870 870 871 871 872 872 873 873 874
769 770 766 768 776 779 779 777 778 782 787 799 806 804 809 820 821 818 818 816 812 811 811 810 810 810 809 807 805 800 796 795 793 791 788 783 780 778 776 779 783 785 787 789 792 794 796 799 801 804 806 808 811 814 816 818 821 823 826 828 830 832 835 838 840 842 844 845 846 848 850 851 852 854 855 856 857 859 860 861 862 863 863 864 865 866 867 868 868 869 869 870 870 871 872 872 873
775 775 774 775 772 771 776 771 767 773 779 792 806 810 819 825 818 817 820 816 814 813 812 812 812 811 811 810 809 806 802 798 795 793 790 786 784 782 779 778 782 784 784 786 789 791 794 797 799 801 803 805 808 811 814 816 818 821 823 825 827 829 832 835 837 839 841 843 844 846 847 849 850 851 853 854 855 856 858 859 860 861 862 862 863 864 865 866 866 867 868 868 869 870 870 871 872
783 779 776 778 776 775 788 788 774 771 775 777 788 809 827 824 815 816 817 815 814 812 811 812 811 812 813 812 810 809 806 801 798 795 792 789 788 787 784 781 781 782 781 783 786 788 791 793 796 798 801 803 805 808 811 813 816 818 820 822 824 827 829 832 834 836 838 840 842 843 845 846 848 849 850 851 853 854 855 857 858 859 860 861 862 863 863 864 865 865 866 867 867 868 869 870 870